Change the Weather History Date:

Tuesday, March 5, 2013

  Actual Average Record
Temperature  
Mean Temperature 42 °F -  
Max Temperature 51 °F 61 °F 82 °F (2004)
Min Temperature 33 °F 42 °F 21 °F (1978)
Degree Days  
Heating Degree Days 23    
Growing Degree Days 0 (Base 50)    
Moisture  
Dew Point 36 °F    
Average Humidity 76    
Maximum Humidity 98    
Minimum Humidity 45    
Precipitation  
Precipitation 0.00 in - - ()
Sea Level Pressure  
Sea Level Pressure 29.94 in    
Wind  
Wind Speed 2 mph (ESE)    
Max Wind Speed 10 mph    
Max Gust Speed 16 mph    
Visibility 9 miles    
Events Rain    
Averages and records for this station are not official NWS values.
T = Trace of Precipitation, MM = Missing Value Source: NWS Daily Summary

Daily Weather History Graph

Daily Weather History Graph

Search for Another Location

Airport or City:

Trip Planner

Search our weather history database for the weather conditions in past years. The results will help you decide how hot, cold, wet, or windy it might be!

Date:

Astronomy

Mar. 05, 2013 Rise Set
Actual Time 6:39 AM EST 6:14 PM EST
Civil Twilight 6:13 AM EST 6:39 PM EST
Nautical Twilight 5:44 AM EST 7:09 PM EST
Astronomical Twilight 5:14 AM EST 7:38 PM EST
Moon 1:40 AM EST (3/5) 12:00 PM EST (3/5)
Length of Visible Light 12h 25m
Length of Day
11h 35m
Last Quarter, 41% of the Moon is Illuminated
Mar 5
Last Quarter
Mar 11
New
Mar 19
First Quarter
Mar 27
Full
Apr 3
Last Quarter

Hourly Weather History & Observations

Time (EST) Temp. Windchill Dew Point Humidity Pressure Visibility Wind Dir Wind Speed Gust Speed Precip Events Conditions
12:15 AM 35.6 °F - 22.1 °F 58% 30.08 in 10.0 mi Calm Calm - N/A   Mostly Cloudy
12:35 AM 36.0 °F - 22.1 °F 57% 30.08 in 10.0 mi Calm Calm - N/A   Overcast
12:55 AM 36.1 °F - 23.5 °F 60% 30.08 in 10.0 mi Calm Calm - N/A   Mostly Cloudy
1:15 AM 36.0 °F - 23.4 °F 60% 30.09 in 10.0 mi Calm Calm - N/A   Scattered Clouds
1:35 AM 35.8 °F - 22.6 °F 59% 30.09 in 10.0 mi Calm Calm - N/A   Clear
1:55 AM 34.2 °F - 24.3 °F 67% 30.09 in 10.0 mi Calm Calm - N/A   Clear
2:15 AM 33.8 °F - 25.5 °F 72% 30.09 in 10.0 mi Calm Calm - N/A   Scattered Clouds
2:35 AM 35.6 °F - 27.5 °F 72% 30.08 in 10.0 mi Calm Calm - N/A   Mostly Cloudy
2:55 AM 36.0 °F - 27.3 °F 71% 30.08 in 10.0 mi Calm Calm - N/A   Overcast
3:15 AM 37.0 °F - 24.8 °F 61% 30.08 in 10.0 mi Calm Calm - N/A   Overcast
3:35 AM 37.0 °F - 25.7 °F 64% 30.07 in 10.0 mi Calm Calm - N/A   Overcast
3:55 AM 36.9 °F - 27.3 °F 68% 30.08 in 10.0 mi Calm Calm - N/A   Scattered Clouds
4:15 AM 36.5 °F - 27.3 °F 69% 30.09 in 10.0 mi Calm Calm - N/A   Clear
4:35 AM 35.8 °F - 26.6 °F 69% 30.08 in 10.0 mi Calm Calm - N/A   Clear
4:55 AM 36.0 °F - 26.2 °F 68% 30.09 in 10.0 mi Calm Calm - N/A   Clear
5:15 AM 36.0 °F - 26.8 °F 69% 30.09 in 10.0 mi Calm Calm - N/A   Clear
5:35 AM 35.6 °F - 27.0 °F 71% 30.09 in 10.0 mi Calm Calm - N/A   Clear
5:55 AM 34.7 °F - 28.4 °F 78% 30.09 in 10.0 mi Calm Calm - N/A   Clear
6:15 AM 35.4 °F - 27.7 °F 73% 30.09 in 10.0 mi Calm Calm - N/A   Clear
6:35 AM 34.0 °F - 27.9 °F 78% 30.08 in 10.0 mi Calm Calm - N/A   Clear
6:55 AM 35.2 °F - 27.1 °F 72% 30.08 in 10.0 mi Calm Calm - N/A   Scattered Clouds
7:15 AM 35.2 °F - 27.7 °F 74% 30.08 in 10.0 mi Calm Calm - N/A   Scattered Clouds
8:15 AM 41.5 °F 38.6 °F 25.5 °F 53% 30.07 in 10.0 mi SSE 4.6 mph - N/A   Clear
8:35 AM 42.8 °F 39.3 °F 27.7 °F 55% 30.06 in 10.0 mi South 5.8 mph - N/A   Clear
8:55 AM 43.5 °F 40.9 °F 28.2 °F 55% 30.06 in 10.0 mi South 4.6 mph - N/A   Clear
9:15 AM 45.5 °F 43.2 °F 28.4 °F 51% 30.06 in 10.0 mi South 4.6 mph - N/A   Clear
9:35 AM 47.7 °F - 28.9 °F 48% 30.05 in 10.0 mi Calm Calm - N/A   Clear
9:55 AM 49.1 °F - 29.1 °F 46% 30.05 in 10.0 mi Calm Calm - N/A   Mostly Cloudy
10:15 AM 49.6 °F - 30.0 °F 47% 30.04 in 10.0 mi Calm Calm - N/A   Overcast
10:35 AM 49.6 °F - 29.8 °F 47% 30.04 in 10.0 mi Calm Calm - N/A   Overcast
10:55 AM 50.2 °F - 30.2 °F 46% 30.03 in 10.0 mi Calm Calm - N/A   Overcast
11:15 AM 51.4 °F - 30.7 °F 45% 30.03 in 10.0 mi Calm Calm - N/A   Overcast
11:35 AM 51.8 °F - 30.9 °F 45% 30.03 in 10.0 mi WSW 3.5 mph - N/A Rain Light Rain
11:55 AM 50.9 °F - 33.6 °F 52% 30.03 in 10.0 mi WSW 3.5 mph - N/A   Light Drizzle
12:15 PM 49.8 °F - 34.2 °F 55% 30.01 in 10.0 mi Calm Calm - N/A   Overcast
12:35 PM 50.0 °F - 35.2 °F 57% 30.00 in 10.0 mi Calm Calm - N/A Rain Rain
12:55 PM 49.6 °F - 37.6 °F 63% 29.99 in 10.0 mi Calm Calm - N/A Rain Rain
1:15 PM 48.7 °F - 39.4 °F 70% 29.98 in 10.0 mi Calm Calm - N/A   Overcast
1:35 PM 48.6 °F - 40.1 °F 73% 29.96 in 10.0 mi Calm Calm - N/A   Light Drizzle
1:55 PM 48.4 °F - 41.9 °F 78% 29.95 in 5.0 mi Calm Calm - N/A Rain Light Rain
2:15 PM 46.9 °F - 42.6 °F 85% 29.95 in 4.0 mi Calm Calm - N/A Rain Light Rain
2:35 PM 46.4 °F - 44.1 °F 92% 29.94 in 4.0 mi Calm Calm - N/A   Drizzle
2:55 PM 46.4 °F - 44.4 °F 93% 29.93 in 3.0 mi Calm Calm - N/A Rain Light Rain
3:15 PM 46.6 °F - 45.5 °F 96% 29.91 in 5.0 mi East 3.5 mph - N/A   Overcast
3:35 PM 47.3 °F - 46.0 °F 95% 29.90 in 7.0 mi ENE 3.5 mph - N/A   Overcast
3:55 PM 47.3 °F - 46.2 °F 96% 29.89 in 7.0 mi East 3.5 mph - N/A   Overcast
4:15 PM 48.2 °F - 46.6 °F 94% 29.88 in 7.0 mi East 3.5 mph - N/A   Overcast
4:35 PM 48.2 °F - 47.1 °F 96% 29.87 in 5.0 mi East 3.5 mph - N/A Rain Light Rain
4:55 PM 47.7 °F - 46.6 °F 96% 29.87 in 7.0 mi Calm Calm - N/A   Overcast
5:15 PM 48.2 °F - 46.9 °F 95% 29.86 in 7.0 mi East 3.5 mph - N/A   Overcast
5:35 PM 47.8 °F - 47.3 °F 98% 29.84 in 5.0 mi ENE 4.6 mph - N/A   Overcast
5:55 PM 47.8 °F - 46.9 °F 97% 29.83 in 5.0 mi ENE 3.5 mph - N/A   Overcast
6:15 PM 47.7 °F - 46.6 °F 96% 29.83 in 7.0 mi ENE 4.6 mph - N/A   Overcast
6:35 PM 47.7 °F - 46.6 °F 96% 29.81 in 7.0 mi ENE 6.9 mph - N/A   Overcast
6:55 PM 47.3 °F - 46.4 °F 97% 29.80 in 7.0 mi ENE 6.9 mph - N/A   Overcast
7:15 PM 47.3 °F - 46.4 °F 97% 29.79 in 7.0 mi ENE 5.8 mph - N/A   Overcast
7:35 PM 47.3 °F - 45.9 °F 95% 29.78 in 7.0 mi East 8.1 mph - N/A   Overcast
7:55 PM 46.9 °F - 45.7 °F 95% 29.76 in 7.0 mi East 8.1 mph - N/A   Overcast
8:15 PM 47.1 °F - 45.5 °F 94% 29.73 in 7.0 mi East 10.4 mph - N/A   Overcast
8:35 PM 47.3 °F - 45.5 °F 93% 29.71 in 10.0 mi East 10.4 mph 16.1 mph N/A   Scattered Clouds
8:55 PM 47.7 °F - 45.5 °F 92% 29.69 in 10.0 mi East 8.1 mph - N/A   Mostly Cloudy
9:15 PM 48.2 °F - 45.7 °F 91% 29.69 in 10.0 mi SE 4.6 mph - N/A Rain Rain
9:35 PM 48.6 °F - 46.6 °F 93% 29.66 in 7.0 mi East 6.9 mph - N/A Rain Light Rain
9:55 PM 48.2 °F - 46.9 °F 95% 29.65 in 7.0 mi ESE 8.1 mph - N/A   Drizzle
10:15 PM 48.6 °F - 47.7 °F 97% 29.63 in 7.0 mi ESE 4.6 mph - N/A Rain Light Rain
10:35 PM 49.1 °F - 48.2 °F 97% 29.61 in 7.0 mi ESE 8.1 mph - N/A Rain Light Rain
10:55 PM 50.2 °F - 48.7 °F 95% 29.62 in 10.0 mi South 3.5 mph - N/A Rain Light Rain
11:15 PM 50.0 °F - 48.9 °F 96% 29.61 in 10.0 mi South 6.9 mph - N/A   Overcast
11:35 PM 49.1 °F - 48.2 °F 97% 29.59 in 10.0 mi South 4.6 mph - N/A   Scattered Clouds
11:55 PM 49.6 °F - 48.6 °F 96% 29.58 in 10.0 mi South 6.9 mph - N/A   Mostly Cloudy